Zurück zum Katalog

STARLINK-2082

AktivKommunikationVLEO
NORAD 47367·PAYLOAD·🇺🇸 United States

Gestartet Jan 20, 2021 von Cape Canaveral Space Force Station

Loading…

Nächste Überflüge (nächste 24 Stunden)

TLE

AktuellSource: CelesTrak SupGP

Epoche: Sep 14, 2026, 21:16 UTC

1 47367C 21005U   26257.88659722  .00046232  00000+0  14865-2 0  2573
2 47367  53.1568 262.1888 0001359  98.5876  71.7346 15.31683052    16

Verfolge STARLINK-2082 in Echtzeit mit AllMySat

Download on the App Store